ZHONGXING-2E

Last updated on Tue Sep 22 2026 00:03:15 GMT+0000 (Coordinated Universal Time)

1 49062U 21071A 26264.57981109 -.00000295 00000+0 00000+0 0 9997 2 49062 0.0407 78.1513 0000494 161.4593 67.6660 1.00271384 19002
UTC large
Height (km)
Speed (km/s)
/
Latitude / Longitude
Inclination (degrees)
Orbital Period (minutes)
Azimuth
Elevation
Range (km)
Doppler Factor

Next 0 passes for location: London (51.5072 / 0.1276)

No passes found over London.
ZHONGXING-2E